Molokai, HI

1:26 AM HST on November 24, 2017 (GMT -1000)
Molokai

Weather History for PHMK - July, 2013

Change the Weather History Date:

Sunday, July 7, 2013

  Actual Average Record
Temperature  
Mean Temperature 73 °F -  
Max Temperature 82 °F 84 °F 89 °F (1978)
Min Temperature 64 °F 70 °F 62 °F (1981)
Cooling Degree Days 8    
Growing Degree Days 23 (Base 50)    
Moisture  
Dew Point 68 °F    
Average Humidity 80    
Maximum Humidity 97    
Minimum Humidity 65    
Precipitation  
Precipitation 0.00 in - - ()
Sea Level Pressure  
Sea Level Pressure 29.98 in    
Wind  
Wind Speed 7 mph (NNE)    
Max Wind Speed 15 mph    
Max Gust Speed 23 mph    
Visibility 10 miles    
Events      
Averages and records for this station are not official NWS values.
T = Trace of Precipitation, MM = Missing Value Source: NWS Daily Summary

Daily Weather History Graph

Daily Weather History Graph

Search for Another Location

Airport or City:

Trip Planner

Search our weather history database for the weather conditions in past years. The results will help you decide how hot, cold, wet, or windy it might be!

Date:

Astronomy

Jul. 07, 2013 Rise Set
Actual Time 5:52 AM HST 7:14 PM HST
Civil Twilight 5:27 AM HST 7:38 PM HST
Nautical Twilight 4:58 AM HST 8:08 PM HST
Astronomical Twilight 4:28 AM HST 8:38 PM HST
Moon 5:30 AM HST (7/7) 6:55 PM HST (7/7)
Length of Visible Light 14h 10m
Length of Day
13h 21m
Waning Crescent, 0% of the Moon is Illuminated
Jul 7
Waning Crescent
Jul 7
New
Jul 15
First Quarter
Jul 22
Full
Jul 29
Last Quarter

Hourly Weather History & Observations

Time (HST) Temp. Heat Index Dew Point Humidity Pressure Visibility Wind Dir Wind Speed Gust Speed Precip Events Conditions
12:54 AM 70.0 °F - 68.0 °F 93% 30.02 in 10.0 mi NNE 5.8 mph - N/A   Clear
1:54 AM 70.0 °F - 66.9 °F 90% 30.00 in 10.0 mi NE 3.5 mph - N/A   Clear
2:54 AM 66.9 °F - 64.9 °F 93% 29.99 in 10.0 mi Calm Calm - N/A   Clear
3:54 AM 64.9 °F - 64.0 °F 97% 29.98 in 10.0 mi Calm Calm - N/A   Clear
4:54 AM 66.9 °F - 64.9 °F 93% 29.97 in 10.0 mi North 4.6 mph - N/A   Clear
5:54 AM 69.1 °F - 66.0 °F 90% 29.98 in 10.0 mi NNE 4.6 mph - N/A   Clear
6:54 AM 73.0 °F - 69.1 °F 87% 29.99 in 10.0 mi NNE 8.1 mph - N/A   Clear
7:54 AM 77.0 °F - 66.9 °F 71% 30.00 in 10.0 mi NNE 6.9 mph 16.1 mph N/A   Clear
8:54 AM 78.1 °F - 66.0 °F 66% 30.00 in 10.0 mi NNE 9.2 mph - N/A   Clear
9:54 AM 80.1 °F 82.9 °F 69.1 °F 69% 30.00 in 10.0 mi NNE 11.5 mph 20.7 mph N/A   Clear
10:54 AM 81.0 °F 84.4 °F 70.0 °F 69% 29.99 in 10.0 mi NNE 13.8 mph 19.6 mph N/A   Scattered Clouds
11:54 AM 82.0 °F 85.9 °F 70.0 °F 67% 29.97 in 10.0 mi NNE 15.0 mph 23.0 mph N/A   Scattered Clouds
12:54 PM 80.1 °F 82.9 °F 69.1 °F 69% 29.97 in 10.0 mi North 10.4 mph 18.4 mph N/A   Scattered Clouds
1:54 PM 81.0 °F 84.1 °F 69.1 °F 67% 29.96 in 10.0 mi NNE 12.7 mph 16.1 mph N/A   Mostly Cloudy
2:54 PM 79.0 °F - 70.0 °F 74% 29.96 in 10.0 mi North 10.4 mph 17.3 mph N/A   Mostly Cloudy
3:54 PM 82.9 °F 87.0 °F 70.0 °F 65% 29.94 in 10.0 mi NNW 11.5 mph 18.4 mph N/A   Mostly Cloudy
4:54 PM 79.0 °F - 70.0 °F 74% 29.94 in 10.0 mi NE 10.4 mph - N/A   Partly Cloudy
5:54 PM 77.0 °F - 70.0 °F 79% 29.94 in 10.0 mi NE 11.5 mph 21.9 mph N/A   Clear
6:54 PM 75.0 °F - 70.0 °F 84% 29.96 in 10.0 mi NE 10.4 mph 18.4 mph N/A   Clear
7:54 PM 75.0 °F - 69.1 °F 82% 29.98 in 10.0 mi ENE 9.2 mph - N/A   Clear
8:54 PM 73.9 °F - 70.0 °F 87% 29.99 in 10.0 mi NNE 4.6 mph - N/A   Clear
9:54 PM 72.0 °F - 69.1 °F 91% 30.00 in 10.0 mi North 8.1 mph - N/A   Clear
10:54 PM 72.0 °F - 66.9 °F 84% 30.01 in 10.0 mi NNE 6.9 mph - N/A   Clear
11:54 PM 72.0 °F - 66.9 °F 84% 30.00 in 10.0 mi NNE 5.8 mph - N/A   Clear